Tracking 31027 objects as of 19-Jul-2025
HD Live streaming from Space Station
objects crossing your sky now

COSMOS 874

Track COSMOS 874 now!
10-day predictions
COSMOS 874 is classified as:


NORAD ID: 9591
Int'l Code: 1976-118D
Perigee: 1,471.0 km
Apogee: 1,522.7 km
Inclination: 74.0 °
Period: 115.8 minutes
Semi major axis: 7867 km
RCS: 0.6831 m2 (medium)
Launch date: December 7, 1976
Source: Commonwealth of Independent States (former USSR) (CIS)
Launch site: PLESETSK MISSILE AND SPACE COMPLEX (PKMTR)
Your satellite tracking list
CREW DRAGON DEMO-2 DEB
Track 1 satellite(s)




NASA's NSSDC Master Catalog

Two Line Element Set (TLE):
1 09591U 76118D   25199.56859786 -.00000016  00000-0 -27200-5 0  9992
2 09591  74.0320 315.3978 0032824 168.8833 202.7861 12.43997150207516
Source of the keplerian elements: AFSPC